Location: Austin
(30.3000°N, 97.7500°W)
Time: 23:00:53
(UTC-06:00)

UNK - Pass Details

Date: 03 December 2025
Orbit: 655 x 672 km, 98.4° (Epoch: 07 December)

Event Time Altitude Azimuth Distance (km) Brightness Sun altitude
Rises 05:13:55 0° 177° (S) 2,991 7.3 -24.9°
Reaches altitude 10° 05:16:11 10° 181° (S) 2,084 6.4 -24.4°
Enters shadow 05:19:22 40° 208° (SSW) 977 4.4 -23.7°
